Theta_e
338 341 338 338 336 334 330 327 327 329 331 334 337 335 334 333 330 329 330 336 336 333 332 332 333 336 336 338 335 335 336 333 332 334 335 333 333 333 332 333 333 332 332
337 336 338 338 337 335 332 330 329 330 332 333 336 338 338 336 333 331 328 328 328 329 329 331 331 332 332 335 333 333 333 331 330 334 335 333 333 332 333 332 332 333 333
339 336 337 337 337 335 334 332 331 331 332 331 334 337 339 338 336 332 329 328 327 328 328 328 328 329 330 331 329 327 327 327 330 333 334 333 333 333 333 333 333 333 332
340 341 338 337 337 335 334 334 333 332 332 330 332 336 338 339 338 334 330 329 328 328 329 328 328 328 328 327 327 328 331 333 333 334 334 332 333 334 334 334 333 333 332
333 338 341 338 337 336 335 335 335 334 331 329 332 336 337 339 339 336 331 329 329 329 329 329 329 329 329 330 331 332 333 333 334 335 332 332 332 332 332 332 332 333 333
328 339 344 342 339 336 335 335 335 334 331 329 332 335 337 339 340 338 333 329 329 330 329 330 330 330 330 331 331 333 333 334 334 335 334 333 334 332 331 330 333 332 333
329 336 345 345 342 338 335 336 334 333 331 330 331 334 337 338 340 339 335 331 329 330 331 331 330 329 328 328 331 333 333 333 333 335 334 333 334 334 331 330 331 332 332
327 334 343 346 346 343 338 337 336 333 331 330 332 334 336 338 340 339 336 332 330 330 330 330 330 330 328 328 330 332 333 332 333 334 334 332 332 333 330 334 331 331 331
323 326 338 343 345 343 341 339 337 334 332 331 332 333 334 337 339 339 337 333 331 330 329 329 330 330 329 328 329 331 332 331 331 332 330 329 330 329 329 334 332 330 331
322 324 331 339 341 345 340 339 338 335 333 331 330 330 332 334 338 338 337 334 332 331 331 330 330 330 329 329 329 330 331 332 332 329 328 331 331 332 332 330 330 330 330
324 328 331 337 338 342 345 340 338 337 334 332 332 331 333 335 336 337 336 335 333 333 332 331 331 331 330 329 330 330 330 331 332 331 328 332 329 329 332 328 330 330 330
322 326 329 333 335 342 344 345 341 338 335 332 332 333 335 336 336 336 335 335 334 333 333 333 332 331 330 330 330 330 330 330 330 331 328 330 331 332 333 330 329 330 330
319 322 319 319 324 335 343 344 344 341 336 334 333 332 333 335 335 335 336 335 334 334 334 334 334 333 331 330 330 330 331 330 330 331 329 326 329 330 333 331 328 328 330
317 317 317 318 323 337 344 344 344 342 337 335 334 333 332 332 334 333 333 334 335 334 334 334 334 333 332 331 331 330 330 331 331 331 331 327 327 330 332 331 327 328 329
316 316 316 317 323 330 337 341 344 341 338 336 335 334 333 332 332 332 331 331 333 335 335 334 334 334 333 332 332 331 330 331 331 332 332 329 327 331 331 332 330 330 328
315 316 316 320 325 333 336 337 338 338 338 337 336 335 334 333 332 332 331 331 331 332 334 335 335 335 334 333 333 332 331 331 331 332 332 332 329 330 331 331 330 329 329
316 316 317 326 332 334 335 335 337 336 334 331 337 337 335 335 334 334 333 333 332 332 333 335 336 336 336 335 334 333 332 331 332 332 333 333 332 333 332 332 331 328 328
317 320 325 336 337 338 335 336 338 336 336 335 334 337 338 337 338 337 336 336 335 334 333 333 335 336 336 337 337 334 333 332 331 332 333 333 332 332 332 331 331 329 328
320 324 329 328 330 331 328 329 333 334 332 330 330 331 333 333 332 327 336 333 333 335 335 333 333 335 336 336 337 335 334 334 333 332 332 333 333 332 332 332 332 331 329
320 320 320 320 319 318 318 318 318 319 324 329 328 326 328 328 329 331 330 328 327 324 334 335 334 334 334 334 334 335 334 335 334 334 334 333 333 333 331 331 332 331 330
318 318 318 317 317 316 315 314 313 313 314 315 317 319 321 324 323 327 332 329 326 325 329 331 331 333 334 333 332 333 333 333 334 334 335 334 333 332 330 328 330 331 330
312 312 312 312 312 312 312 312 312 312 312 312 312 312 313 315 317 321 324 329 328 326 326 324 333 328 332 330 332 333 331 332 334 334 336 334 332 331 330 328 327 328 328
309 308 308 307 307 308 309 309 309 310 310 310 310 311 311 311 311 312 314 317 321 324 330 330 330 329 331 332 332 329 329 332 332 332 331 333 333 331 330 327 326 328 328
305 305 304 303 303 304 305 305 306 306 306 306 307 307 308 309 310 310 311 311 314 318 322 327 330 331 330 327 329 332 325 326 325 324 327 328 329 331 330 329 327 328 327
301 301 301 302 302 303 303 303 303 304 304 304 304 305 305 305 307 309 310 311 311 312 313 316 322 329 332 328 326 330 329 324 324 324 325 325 327 327 330 329 329 329 328
300 300 300 301 301 302 303 303 304 304 305 305 305 306 306 306 306 307 309 310 310 311 311 312 313 320 326 332 331 330 330 327 326 324 323 321 326 326 325 326 327 327 326
Wind_Speed
9 24 25 25 24 22 20 18 19 18 17 16 15 13 11 9 9 9 8 9 9 11 14 14 13 11 11 7 5 4 3 3 3 3 2 4 7 9 11 10 12 12 13
8 22 25 24 23 22 21 20 18 17 16 17 16 14 12 11 10 9 9 9 9 11 12 12 12 11 9 8 5 3 2 1 1 1 3 4 7 9 9 10 10 10 11
9 15 22 22 22 22 21 20 18 17 16 17 17 16 14 12 10 9 9 10 10 10 11 11 11 10 10 9 6 4 3 3 3 2 3 5 7 8 8 10 11 10 10
7 10 17 21 22 21 21 20 19 17 16 17 17 17 16 14 12 10 9 10 10 10 11 11 11 11 10 9 8 6 5 6 6 3 5 7 10 10 8 4 5 8 10
3 8 12 18 22 22 20 19 18 17 17 17 18 18 17 15 13 11 10 10 11 11 12 13 12 11 10 9 8 7 8 10 7 7 9 8 8 9 6 7 8 9 10
2 7 11 14 21 22 21 20 19 18 17 17 18 18 18 17 15 13 11 11 11 12 12 12 12 11 10 9 8 9 10 11 8 9 10 8 8 10 8 9 10 11 11
2 5 9 10 13 20 21 20 20 19 19 19 19 19 19 18 17 15 14 13 12 12 12 12 11 11 11 11 10 10 11 11 9 10 12 7 10 10 13 10 9 10 11
3 5 9 11 11 17 23 22 21 21 20 20 20 20 20 20 19 17 16 15 14 13 13 13 13 12 12 11 11 11 12 12 10 11 12 10 10 11 11 8 9 11 11
4 5 7 10 11 12 22 23 22 22 22 22 22 21 22 22 21 19 18 18 17 16 15 14 13 13 12 12 11 11 13 12 11 11 12 11 11 8 11 10 11 11 12
7 5 6 8 11 12 17 23 23 23 23 23 23 24 24 24 24 22 20 19 19 19 17 16 15 14 13 13 12 12 13 13 13 12 12 10 12 15 12 12 10 11 13
10 8 7 8 10 11 14 21 24 25 25 25 25 25 25 26 26 24 23 21 21 20 19 18 17 16 14 14 14 14 14 14 14 13 13 12 10 13 9 10 10 13 14
11 9 8 9 11 14 15 18 25 27 28 28 28 26 26 26 26 25 24 23 22 22 21 20 19 18 17 16 16 16 16 15 17 16 15 16 15 16 13 12 9 12 14
12 10 8 11 14 15 16 17 21 28 29 30 29 28 27 26 27 28 27 26 26 26 26 25 23 23 20 18 18 18 17 17 18 18 17 17 18 17 15 13 14 13 15
18 15 15 14 17 16 18 17 16 24 30 30 30 28 28 28 29 30 29 28 28 28 28 28 27 25 22 21 20 19 19 19 19 20 20 20 18 18 18 13 12 14 15
22 21 22 19 17 20 20 19 19 18 26 27 28 28 28 29 29 30 30 30 30 30 30 30 29 28 26 24 23 22 22 21 21 20 21 22 20 19 17 18 15 17 17
20 19 20 18 18 19 19 19 19 18 16 24 27 29 30 29 29 30 31 30 31 31 31 31 31 30 29 27 26 25 25 24 24 23 21 21 20 19 18 17 16 17 18
17 14 13 19 21 21 19 19 20 21 22 25 32 31 29 28 29 30 31 31 31 31 31 31 31 31 30 29 30 29 26 26 27 25 23 21 20 19 20 20 19 18 18
13 12 15 18 21 20 19 18 17 18 20 25 30 27 28 28 29 32 32 30 29 32 34 33 32 30 32 33 31 31 29 26 26 25 23 23 22 21 20 21 21 21 20
18 18 18 17 16 17 16 13 12 13 14 15 17 19 21 31 33 40 44 30 28 28 37 37 36 34 34 36 36 30 31 29 28 27 25 25 23 22 22 21 23 23 22
19 17 15 14 14 13 13 13 13 14 16 18 19 16 18 21 22 25 35 53 46 47 38 35 37 35 36 36 36 35 32 32 32 32 30 27 26 25 24 23 25 25 24
12 9 8 6 6 7 9 10 12 14 16 18 21 19 17 20 17 19 22 28 39 56 48 36 36 37 36 37 37 36 35 34 33 33 31 31 30 28 25 24 26 26 25
12 10 6 3 1 3 4 6 9 10 11 15 16 17 17 19 20 22 15 22 26 49 52 50 47 41 38 37 36 32 30 34 38 36 34 33 31 28 27 26 25 26 25
14 14 12 12 10 8 7 7 8 10 12 17 19 21 20 20 21 20 21 22 22 22 32 42 43 44 40 39 42 35 17 20 26 33 38 38 35 33 30 26 25 27 27
14 12 14 14 15 14 14 13 14 17 18 18 21 22 22 23 24 25 24 25 26 28 29 28 31 42 44 44 38 25 55 43 12 21 25 38 39 36 35 31 29 29 28
17 18 16 16 18 18 17 17 17 18 21 23 25 26 26 25 26 27 28 28 29 28 30 31 29 31 34 40 48 39 41 41 43 39 35 33 32 39 40 37 33 32 30
22 22 23 22 24 23 22 21 21 22 22 24 26 28 29 29 28 27 29 30 31 31 31 31 31 33 31 33 39 45 44 45 44 39 40 52 42 37 34 36 35 34 31
Wind_Direction
195 191 183 178 176 175 176 176 172 172 173 175 173 169 164 155 139 142 148 157 157 153 158 166 170 169 173 163 144 124 103 61 26 49 64 112 125 131 128 133 139 138 139
154 179 185 184 183 182 179 178 177 178 181 181 180 177 173 167 155 148 153 161 161 162 165 167 174 180 180 183 173 165 151 52 326 92 70 126 134 130 130 132 143 148 152
170 180 190 189 190 190 185 182 184 185 187 187 185 182 179 176 168 164 159 161 162 164 167 170 176 183 187 190 191 189 198 241 236 125 122 135 144 138 143 152 156 162 159
166 188 198 197 198 199 194 189 188 191 193 191 188 187 183 183 179 177 171 168 167 168 170 174 179 185 191 194 196 197 199 207 188 174 170 160 154 153 146 143 177 165 169
163 196 202 208 204 205 203 199 195 194 197 194 192 190 188 187 187 186 181 177 174 174 177 180 183 187 192 193 192 189 192 194 188 173 158 166 165 167 187 171 183 188 183
273 199 200 212 213 211 209 208 205 201 200 198 196 194 193 192 193 192 191 187 185 187 189 189 191 192 193 194 195 186 189 197 192 181 179 177 186 227 215 192 192 193 189
298 216 209 208 217 223 220 215 212 210 206 202 201 200 197 198 197 198 198 197 196 195 195 196 195 194 196 198 195 187 197 207 202 195 189 189 179 197 200 195 194 208 199
305 240 218 223 237 234 225 222 219 216 211 207 204 203 202 204 203 203 202 202 204 203 204 202 201 202 203 200 198 191 203 209 205 201 202 200 207 198 208 216 208 200 207
297 282 239 238 247 244 229 227 223 221 217 212 208 208 208 208 207 208 209 206 207 210 211 212 210 210 208 207 206 200 206 210 211 207 214 225 221 191 214 223 202 203 206
259 251 268 256 260 249 228 227 230 226 224 218 214 211 212 211 209 211 213 213 212 212 217 218 218 218 216 213 213 210 211 217 224 213 223 227 242 224 202 213 209 214 208
244 242 247 261 276 266 247 238 233 232 228 223 219 216 214 216 213 211 216 219 219 221 221 224 225 225 222 219 216 217 214 223 231 228 219 220 212 194 230 227 227 222 212
250 253 261 271 275 268 260 249 240 233 230 225 221 218 220 219 222 221 220 222 224 226 229 229 231 230 227 224 222 222 219 217 231 235 227 213 214 221 232 221 249 232 220
269 256 268 282 267 260 264 259 252 239 232 229 225 223 224 225 226 229 226 225 225 225 227 230 231 234 235 231 228 229 227 224 225 235 235 227 217 223 226 232 254 235 222
261 258 264 269 260 252 254 261 263 249 238 234 231 229 229 230 231 233 234 232 232 231 232 234 236 238 239 238 235 235 232 231 231 231 233 233 224 221 229 241 255 238 228
256 259 263 262 242 248 250 255 256 248 242 244 244 241 238 237 238 240 241 240 238 237 237 237 239 242 242 241 238 237 236 234 233 232 230 231 231 228 242 250 248 241 233
251 256 265 246 229 233 241 248 251 263 251 244 249 247 245 245 246 248 247 246 246 246 244 243 243 246 247 245 243 239 239 238 236 235 233 227 229 234 244 241 246 243 239
247 255 244 224 218 230 235 243 244 244 246 246 249 244 247 246 249 254 256 256 255 253 251 247 247 248 248 247 244 239 236 237 233 233 233 229 230 232 237 242 248 242 240
228 217 217 205 210 224 237 247 248 253 252 251 253 253 250 244 247 252 257 257 262 267 261 253 249 248 249 249 249 240 234 230 230 231 234 236 238 240 242 242 244 241 241
185 177 183 190 198 208 219 226 240 255 259 269 274 274 266 248 247 249 251 249 256 270 269 259 254 251 252 253 251 243 235 232 232 234 236 241 243 245 244 244 241 243 243
165 169 177 187 195 206 219 234 244 252 262 265 269 273 274 272 267 271 260 254 262 251 268 260 255 254 253 256 257 249 238 238 238 238 240 243 245 247 244 240 239 240 243
133 159 173 209 220 235 245 252 260 257 257 265 271 274 269 274 284 286 284 251 246 236 262 258 259 258 254 253 259 256 246 237 239 244 242 243 242 241 240 236 238 238 234
82 78 66 58 316 260 256 272 282 289 288 285 285 284 284 278 277 271 267 254 252 242 258 254 258 257 265 261 253 252 256 245 239 239 243 242 243 241 237 235 237 239 238
49 37 28 15 3 348 328 315 300 294 289 284 282 285 285 283 280 272 270 259 254 248 251 238 246 250 256 258 263 252 254 237 246 250 248 243 242 241 237 235 237 239 241
47 23 10 359 354 347 339 326 315 310 302 297 293 289 289 287 285 285 277 270 261 257 261 261 258 250 252 250 264 248 223 239 244 283 278 251 248 245 245 240 240 240 242
23 14 0 352 344 343 337 330 317 308 303 300 298 293 288 285 284 282 282 277 271 263 258 257 254 257 246 247 245 233 233 235 243 249 256 276 263 250 246 246 245 245 244
11 4 356 350 342 338 336 331 324 318 311 303 302 299 295 291 283 278 278 278 276 273 269 261 253 247 249 248 248 247 247 220 221 223 224 242 264 264 252 248 245 244 244